LAN2466 SPZO-SCEL

Flight info

Callsign LAN2466
Flight time 2h 49m
Altitude 35000
Route OGMAS UL300 ARI DCT LOBAG UQ803 UKATO/N0443F370 UQ803 SIMOK UV208 TBN
Aircraft A320/M-SDE3FGHIRWY/LB1

Departure

Time 2026-04-23 22:16
Airport Alejandro Velasco Astete International Airport (SPZO)

Arrival

Time 2026-04-24 01:06
Airport Comodoro Arturo Merino Benítez International Airport (SCEL)
Time Latitude Longitude Altitude Speed Heading
2026-04-23 21:55 -13.53724 -71.94322 10816 ft 0 kts 258°
2026-04-23 22:06 -13.53723 -71.94316 10816 ft 4 kts 260°
2026-04-23 22:07 -13.53722 -71.94289 10816 ft 4 kts 287°
2026-04-23 22:07 -13.53734 -71.94270 10815 ft 4 kts 348°
2026-04-23 22:07 -13.53745 -71.94269 10816 ft 1 kts
2026-04-23 22:10 -13.53742 -71.94269 10816 ft 2 kts
2026-04-23 22:10 -13.53713 -71.94268 10816 ft 8 kts
2026-04-23 22:10 -13.53668 -71.94313 10816 ft 11 kts 285°
2026-04-23 22:10 -13.53658 -71.94386 10816 ft 10 kts 277°
2026-04-23 22:11 -13.53651 -71.94457 10816 ft 10 kts 276°
2026-04-23 22:11 -13.53643 -71.94534 10816 ft 12 kts 276°
2026-04-23 22:11 -13.53635 -71.94606 10821 ft 8 kts 276°
2026-04-23 22:11 -13.53629 -71.94672 10825 ft 14 kts 275°
2026-04-23 22:12 -13.53620 -71.94766 10831 ft 11 kts 276°
2026-04-23 22:12 -13.53612 -71.94843 10836 ft 13 kts 276°
2026-04-23 22:12 -13.53602 -71.94944 10847 ft 15 kts 276°
2026-04-23 22:12 -13.53590 -71.95060 10856 ft 17 kts 276°
2026-04-23 22:13 -13.53577 -71.95186 10862 ft 19 kts 276°
2026-04-23 22:13 -13.53562 -71.95338 10863 ft 23 kts 275°
2026-04-23 22:13 -13.53529 -71.95428 10864 ft 0 kts 330°
2026-04-23 22:13 -13.53526 -71.95429 10863 ft 0 kts 341°
2026-04-23 22:14 -13.53521 -71.95430 10863 ft 3 kts 346°
2026-04-23 22:14 -13.53503 -71.95430 10863 ft 2 kts
2026-04-23 22:14 -13.53489 -71.95429 10865 ft 4 kts
2026-04-23 22:14 -13.53445 -71.95423 10871 ft 6 kts 11°
2026-04-23 22:15 -13.53420 -71.95397 10867 ft 5 kts 76°
2026-04-23 22:15 -13.53422 -71.95366 10865 ft 0 kts 94°
2026-04-23 22:15 -13.53422 -71.95363 10865 ft 2 kts 94°
2026-04-23 22:15 -13.53437 -71.95201 10866 ft 55 kts 95°
2026-04-23 22:16 -13.53500 -71.94570 10820 ft 121 kts 96°
2026-04-23 22:16 -13.53606 -71.93527 10782 ft 171 kts 96°
2026-04-23 22:16 -13.53766 -71.92214 11107 ft 191 kts 95°
2026-04-23 22:16 -13.54009 -71.90859 11804 ft 196 kts 103°
2026-04-23 22:17 -13.54441 -71.89550 12474 ft 188 kts 112°
2026-04-23 22:17 -13.54990 -71.88366 13104 ft 180 kts 116°
2026-04-23 22:17 -13.55568 -71.87232 13451 ft 182 kts 118°
2026-04-23 22:17 -13.56283 -71.86124 13645 ft 189 kts 128°
2026-04-23 22:18 -13.57035 -71.84992 13765 ft 197 kts 117°
2026-04-23 22:18 -13.57660 -71.83716 13808 ft 210 kts 113°
2026-04-23 22:18 -13.58332 -71.82334 13880 ft 223 kts 113°
2026-04-23 22:18 -13.59024 -71.80856 13948 ft 236 kts 113°
2026-04-23 22:19 -13.59717 -71.79265 14005 ft 252 kts 112°
2026-04-23 22:19 -13.60508 -71.77573 14061 ft 275 kts 122°
2026-04-23 22:19 -13.61908 -71.76142 14155 ft 298 kts 150°
2026-04-23 22:19 -13.63890 -71.75301 14258 ft 319 kts 160°
2026-04-23 22:20 -13.66048 -71.74536 14346 ft 338 kts 161°
2026-04-23 22:20 -13.68277 -71.73766 14916 ft 337 kts 160°
2026-04-23 22:20 -13.70492 -71.73003 15577 ft 334 kts 160°
2026-04-23 22:20 -13.72652 -71.72252 16253 ft 330 kts 160°
2026-04-23 22:21 -13.74800 -71.71498 16949 ft 324 kts 159°
2026-04-23 22:21 -13.76915 -71.70751 17666 ft 317 kts 159°
2026-04-23 22:21 -13.78971 -71.70024 18414 ft 308 kts 159°
2026-04-23 22:21 -13.80977 -71.69313 19047 ft 300 kts 159°
2026-04-23 22:22 -13.82920 -71.68625 19676 ft 294 kts 159°
2026-04-23 22:22 -13.84866 -71.67934 20064 ft 297 kts 159°
2026-04-23 22:22 -13.86827 -71.67236 20441 ft 301 kts 159°
2026-04-23 22:22 -13.88851 -71.66516 20563 ft 315 kts 160°
2026-04-23 22:23 -13.90962 -71.65768 20677 ft 327 kts 160°
2026-04-23 22:23 -13.93154 -71.64993 20798 ft 340 kts 160°
2026-04-23 22:23 -13.95431 -71.64191 20919 ft 351 kts 160°
2026-04-23 22:23 -13.97784 -71.63362 21040 ft 363 kts 160°
2026-04-23 22:24 -14.00209 -71.62503 21165 ft 375 kts 160°
2026-04-23 22:24 -14.02680 -71.61625 21286 ft 386 kts 160°
2026-04-23 22:24 -14.05253 -71.60709 21407 ft 396 kts 160°
2026-04-23 22:24 -14.07820 -71.59799 21595 ft 404 kts 160°
2026-04-23 22:25 -14.10851 -71.58728 21978 ft 407 kts 160°
2026-04-23 22:25 -14.13540 -71.57779 22344 ft 409 kts 160°
2026-04-23 22:25 -14.18281 -71.56098 22981 ft 412 kts 160°
2026-04-23 22:26 -14.21006 -71.55127 23287 ft 416 kts 160°
2026-04-23 22:26 -14.23739 -71.54153 23623 ft 418 kts 160°
2026-04-23 22:26 -14.26501 -71.53174 23918 ft 420 kts 160°
2026-04-23 22:26 -14.29267 -71.52193 24204 ft 422 kts 160°
2026-04-23 22:27 -14.32010 -71.51222 24493 ft 423 kts 160°
2026-04-23 22:27 -14.34798 -71.50235 24785 ft 425 kts 160°
2026-04-23 22:27 -14.37604 -71.49243 25065 ft 427 kts 160°
2026-04-23 22:27 -14.40415 -71.48248 25355 ft 428 kts 160°
2026-04-23 22:28 -14.43238 -71.47249 25632 ft 430 kts 160°
2026-04-23 22:28 -14.46073 -71.46243 25901 ft 432 kts 160°
2026-04-23 22:28 -14.48918 -71.45229 26158 ft 434 kts 160°
2026-04-23 22:28 -14.51781 -71.44204 26417 ft 436 kts 160°
2026-04-23 22:29 -14.54649 -71.43177 26681 ft 437 kts 160°
2026-04-23 22:29 -14.57527 -71.42147 26945 ft 439 kts 160°
2026-04-23 22:29 -14.60418 -71.41114 27195 ft 440 kts 160°
2026-04-23 22:29 -14.63321 -71.40080 27454 ft 442 kts 160°
2026-04-23 22:30 -14.66189 -71.39058 27722 ft 443 kts 160°
2026-04-23 22:30 -14.69111 -71.38018 27978 ft 445 kts 160°
2026-04-23 22:30 -14.72038 -71.36977 28229 ft 446 kts 160°
2026-04-23 22:30 -14.74980 -71.35932 28484 ft 448 kts 160°
2026-04-23 22:31 -14.77932 -71.34882 28730 ft 450 kts 160°
2026-04-23 22:31 -14.80894 -71.33827 28965 ft 451 kts 160°
2026-04-23 22:31 -14.83866 -71.32762 29206 ft 453 kts 160°
2026-04-23 22:31 -14.86849 -71.31694 29463 ft 453 kts 159°
2026-04-23 22:32 -14.89819 -71.30631 29765 ft 453 kts 160°
2026-04-23 22:32 -14.92809 -71.29565 29946 ft 455 kts 160°
2026-04-23 22:32 -14.95812 -71.28495 30157 ft 457 kts 160°
2026-04-23 22:32 -14.98824 -71.27421 30350 ft 459 kts 160°
2026-04-23 22:33 -15.01809 -71.26354 30518 ft 461 kts 160°
2026-04-23 22:33 -15.04833 -71.25271 30753 ft 461 kts 160°
2026-04-23 22:33 -15.07865 -71.24187 31001 ft 460 kts 160°
2026-04-23 22:33 -15.10890 -71.23108 31245 ft 460 kts 160°
2026-04-23 22:34 -15.13920 -71.22028 31511 ft 460 kts 160°
2026-04-23 22:34 -15.16942 -71.20949 31746 ft 460 kts 160°
2026-04-23 22:34 -15.19977 -71.19860 31947 ft 461 kts 160°
2026-04-23 22:34 -15.23012 -71.18765 32103 ft 464 kts 160°
2026-04-23 22:35 -15.26064 -71.17666 32333 ft 465 kts 160°
2026-04-23 22:35 -15.29123 -71.16568 32544 ft 465 kts 160°
2026-04-23 22:35 -15.32186 -71.15470 32761 ft 466 kts 160°
2026-04-23 22:35 -15.35207 -71.14387 32987 ft 466 kts 160°
2026-04-23 22:36 -15.38310 -71.13271 33280 ft 466 kts 160°
2026-04-23 22:36 -15.41326 -71.12192 33502 ft 466 kts 160°
2026-04-23 22:36 -15.44400 -71.11092 33694 ft 467 kts 160°
2026-04-23 22:36 -15.47469 -71.09992 33928 ft 467 kts 160°
2026-04-23 22:37 -15.50541 -71.08889 34205 ft 466 kts 160°
2026-04-23 22:37 -15.53615 -71.07787 34400 ft 468 kts 160°
2026-04-23 22:37 -15.56703 -71.06678 34530 ft 470 kts 160°
2026-04-23 22:37 -15.59794 -71.05567 34715 ft 470 kts 160°
2026-04-23 22:38 -15.62882 -71.04455 34943 ft 470 kts 160°
2026-04-23 22:38 -15.65974 -71.03342 35155 ft 470 kts 160°
2026-04-23 22:38 -15.69024 -71.02243 35278 ft 470 kts 160°
2026-04-23 22:38 -15.72108 -71.01133 35285 ft 467 kts 160°
2026-04-23 22:39 -15.78226 -70.98925 35310 ft 465 kts 160°
2026-04-23 22:39 -15.84348 -70.96708 35318 ft 466 kts 160°
2026-04-23 22:40 -15.90479 -70.94496 35331 ft 467 kts 160°
2026-04-23 22:41 -15.99693 -70.91176 35336 ft 467 kts 160°
2026-04-23 22:41 -16.05796 -70.88967 35356 ft 467 kts 160°
2026-04-23 22:42 -16.11949 -70.86750 35328 ft 467 kts 161°
2026-04-23 22:42 -16.18092 -70.84532 35358 ft 467 kts 160°
2026-04-23 22:43 -16.24238 -70.82302 35357 ft 468 kts 160°
2026-04-23 22:43 -16.30387 -70.80073 35351 ft 467 kts 160°
2026-04-23 22:44 -16.36490 -70.77860 35352 ft 468 kts 160°
2026-04-23 22:44 -16.42792 -70.76224 35336 ft 468 kts 168°
2026-04-23 22:45 -16.49174 -70.74878 35332 ft 468 kts 168°
2026-04-23 22:45 -16.55547 -70.73523 35314 ft 468 kts 168°
2026-04-23 22:46 -16.61878 -70.72173 35303 ft 467 kts 168°
2026-04-23 22:46 -16.68250 -70.70815 35301 ft 468 kts 168°
2026-04-23 22:47 -16.74629 -70.69460 35303 ft 467 kts 168°
2026-04-23 22:47 -16.81001 -70.68107 35286 ft 467 kts 168°
2026-04-23 22:48 -16.87392 -70.66743 35274 ft 469 kts 168°
2026-04-23 22:48 -16.93749 -70.65386 35244 ft 470 kts 168°
2026-04-23 22:49 -17.00161 -70.64024 35245 ft 471 kts 168°
2026-04-23 22:49 -17.06578 -70.62657 35214 ft 471 kts 168°
2026-04-23 22:50 -17.13000 -70.61289 35219 ft 471 kts 169°
2026-04-23 22:50 -17.19380 -70.59924 35193 ft 471 kts 168°
2026-04-23 22:51 -17.25812 -70.58542 35192 ft 472 kts 168°
2026-04-23 22:51 -17.32248 -70.57162 35154 ft 472 kts 169°
2026-04-23 22:52 -17.38683 -70.55796 35155 ft 472 kts 169°
2026-04-23 22:52 -17.45124 -70.54422 35118 ft 472 kts 169°
2026-04-23 22:53 -17.51526 -70.53048 35118 ft 472 kts 169°
2026-04-23 22:53 -17.57954 -70.51671 35123 ft 472 kts 169°
2026-04-23 22:54 -17.64389 -70.50289 35125 ft 471 kts 169°
2026-04-23 22:54 -17.70813 -70.48908 35097 ft 471 kts 169°
2026-04-23 22:55 -17.77240 -70.47525 35096 ft 471 kts 169°
2026-04-23 22:55 -17.83620 -70.46147 35076 ft 471 kts 169°
2026-04-23 22:56 -17.90044 -70.44770 35080 ft 471 kts 169°
2026-04-23 22:56 -17.96464 -70.43390 35055 ft 471 kts 169°
2026-04-23 22:57 -18.02883 -70.42001 35053 ft 471 kts 169°
2026-04-23 22:57 -18.09303 -70.40617 35041 ft 471 kts 169°
2026-04-23 22:58 -18.15718 -70.39232 35042 ft 471 kts 170°
2026-04-23 22:58 -18.22099 -70.37857 35042 ft 471 kts 170°
2026-04-23 22:59 -18.28523 -70.36472 35042 ft 471 kts 170°
2026-04-23 22:59 -18.34943 -70.35076 35043 ft 471 kts 169°
2026-04-23 23:00 -18.41353 -70.33889 35044 ft 470 kts 174°
2026-04-23 23:00 -18.47838 -70.33132 35046 ft 469 kts 176°
2026-04-23 23:01 -18.54338 -70.32452 35051 ft 469 kts 176°
2026-04-23 23:01 -18.60823 -70.31680 35051 ft 469 kts 175°
2026-04-23 23:02 -18.67301 -70.30839 35051 ft 469 kts 175°
2026-04-23 23:02 -18.73774 -70.30000 35058 ft 469 kts 175°
2026-04-23 23:03 -18.80252 -70.29183 35060 ft 468 kts 175°
2026-04-23 23:03 -18.86671 -70.28373 35062 ft 468 kts 175°
2026-04-23 23:04 -18.93135 -70.27554 35060 ft 467 kts 175°
2026-04-23 23:04 -18.99589 -70.26735 35065 ft 467 kts 175°
2026-04-23 23:05 -19.06046 -70.25924 35069 ft 467 kts 176°
2026-04-23 23:05 -19.12497 -70.25116 35069 ft 467 kts 176°
2026-04-23 23:06 -19.18915 -70.24303 35068 ft 467 kts 176°
2026-04-23 23:06 -19.25359 -70.23480 35070 ft 467 kts 176°
2026-04-23 23:07 -19.31814 -70.22657 35065 ft 467 kts 175°
2026-04-23 23:07 -19.38262 -70.21835 35078 ft 467 kts 176°
2026-04-23 23:08 -19.44716 -70.21256 35080 ft 463 kts 183°
2026-04-23 23:08 -19.51159 -70.21287 35077 ft 463 kts 183°
2026-04-23 23:09 -19.57556 -70.21310 35071 ft 463 kts 183°
2026-04-23 23:09 -19.63995 -70.21333 35069 ft 463 kts 183°
2026-04-23 23:10 -19.70433 -70.21352 35075 ft 462 kts 184°
2026-04-23 23:10 -19.76870 -70.21374 35071 ft 462 kts 184°
2026-04-23 23:11 -19.83303 -70.21397 35063 ft 462 kts 184°
2026-04-23 23:11 -19.89696 -70.21417 35065 ft 462 kts 183°
2026-04-23 23:12 -19.96130 -70.21438 35065 ft 462 kts 184°
2026-04-23 23:12 -20.02561 -70.21461 35068 ft 462 kts 184°
2026-04-23 23:13 -20.08992 -70.21483 35067 ft 462 kts 184°
2026-04-23 23:13 -20.15432 -70.21507 35065 ft 462 kts 184°
2026-04-23 23:14 -20.21864 -70.21532 35063 ft 463 kts 184°
2026-04-23 23:14 -20.28257 -70.21557 35060 ft 462 kts 184°
2026-04-23 23:15 -20.34703 -70.21579 35067 ft 463 kts 184°
2026-04-23 23:15 -20.41137 -70.21594 35067 ft 463 kts 184°
2026-04-23 23:16 -20.47581 -70.21616 35065 ft 463 kts 184°
2026-04-23 23:16 -20.54018 -70.21642 35064 ft 463 kts 184°
2026-04-23 23:17 -20.60418 -70.21672 35065 ft 463 kts 184°
2026-04-23 23:17 -20.66861 -70.21694 35064 ft 463 kts 184°
2026-04-23 23:18 -20.73310 -70.21716 35061 ft 463 kts 184°
2026-04-23 23:18 -20.79763 -70.21736 35059 ft 464 kts 184°
2026-04-23 23:19 -20.86170 -70.21757 35056 ft 464 kts 185°
2026-04-23 23:19 -20.92660 -70.21790 35055 ft 464 kts 185°
2026-04-23 23:20 -20.99074 -70.21819 35059 ft 464 kts 184°
2026-04-23 23:20 -21.05526 -70.21832 35056 ft 464 kts 184°
2026-04-23 23:21 -21.11982 -70.21848 35052 ft 464 kts 184°
2026-04-23 23:21 -21.18434 -70.21875 35053 ft 464 kts 184°
2026-04-23 23:22 -21.24887 -70.21895 35055 ft 464 kts 184°
2026-04-23 23:22 -21.31296 -70.21916 35062 ft 464 kts 185°
2026-04-23 23:23 -21.37757 -70.21945 35056 ft 464 kts 185°
2026-04-23 23:23 -21.44223 -70.21964 35050 ft 464 kts 185°
2026-04-23 23:24 -21.50681 -70.21983 35055 ft 464 kts 185°
2026-04-23 23:24 -21.57143 -70.22004 35051 ft 464 kts 185°
2026-04-23 23:25 -21.63552 -70.22032 35051 ft 464 kts 185°
2026-04-23 23:25 -21.70028 -70.22057 35050 ft 464 kts 185°
2026-04-23 23:26 -21.76494 -70.22077 35047 ft 464 kts 185°
2026-04-23 23:26 -21.82955 -70.22096 35044 ft 464 kts 185°
2026-04-23 23:27 -21.89414 -70.22179 35060 ft 461 kts 191°
2026-04-23 23:27 -21.95731 -70.23125 35058 ft 458 kts 194°
2026-04-23 23:28 -22.01986 -70.24120 35053 ft 458 kts 194°
2026-04-23 23:28 -22.08289 -70.25104 35054 ft 458 kts 194°
2026-04-23 23:29 -22.14599 -70.26090 35053 ft 458 kts 194°
2026-04-23 23:29 -22.20897 -70.27080 35068 ft 457 kts 194°
2026-04-23 23:30 -22.27185 -70.28068 35060 ft 456 kts 194°
2026-04-23 23:30 -22.33470 -70.29059 35057 ft 456 kts 195°
2026-04-23 23:31 -22.38686 -70.29882 35053 ft 456 kts 195°
2026-04-23 23:31 -22.45981 -70.31042 35050 ft 456 kts 195°
2026-04-23 23:32 -22.52253 -70.32033 35065 ft 456 kts 195°
2026-04-23 23:32 -22.57468 -70.32855 35059 ft 455 kts 195°
2026-04-23 23:33 -22.63743 -70.33846 35059 ft 455 kts 195°
2026-04-23 23:33 -22.70013 -70.34835 35054 ft 455 kts 195°
2026-04-23 23:34 -22.76229 -70.35823 35047 ft 455 kts 195°
2026-04-23 23:34 -22.82490 -70.36815 35063 ft 454 kts 195°
2026-04-23 23:35 -22.88763 -70.37737 35053 ft 458 kts 190°
2026-04-23 23:35 -22.95189 -70.37836 35051 ft 462 kts 187°
2026-04-23 23:36 -23.01580 -70.37881 35040 ft 462 kts 187°
2026-04-23 23:36 -23.08006 -70.37923 35033 ft 462 kts 187°
2026-04-23 23:37 -23.14425 -70.37970 35048 ft 462 kts 188°
2026-04-23 23:37 -23.20844 -70.38018 35039 ft 461 kts 188°
2026-04-23 23:38 -23.27229 -70.38068 35040 ft 461 kts 188°
2026-04-23 23:38 -23.33654 -70.38115 35042 ft 462 kts 188°
2026-04-23 23:39 -23.40078 -70.38166 35040 ft 462 kts 188°
2026-04-23 23:39 -23.46502 -70.38221 35061 ft 462 kts 188°
2026-04-23 23:40 -23.52888 -70.38272 35054 ft 462 kts 188°
2026-04-23 23:40 -23.59310 -70.38317 35049 ft 462 kts 188°
2026-04-23 23:41 -23.65741 -70.38365 35044 ft 462 kts 188°
2026-04-23 23:41 -23.72168 -70.38419 35040 ft 462 kts 188°
2026-04-23 23:42 -23.78550 -70.38470 35053 ft 462 kts 188°
2026-04-23 23:42 -23.84987 -70.38404 35048 ft 464 kts 186°
2026-04-23 23:43 -23.91450 -70.38144 35047 ft 465 kts 186°
2026-04-23 23:43 -23.97928 -70.37865 35040 ft 465 kts 186°
2026-04-23 23:44 -24.04395 -70.37635 35042 ft 465 kts 186°
2026-04-23 23:44 -24.10862 -70.37434 35037 ft 464 kts 186°
2026-04-23 23:45 -24.17278 -70.37232 35035 ft 464 kts 186°
2026-04-23 23:45 -24.23744 -70.37020 35034 ft 465 kts 186°
2026-04-23 23:46 -24.30209 -70.36807 35039 ft 465 kts 186°
2026-04-23 23:46 -24.36686 -70.36588 35068 ft 465 kts 187°
2026-04-23 23:47 -24.43111 -70.36371 35064 ft 465 kts 187°
2026-04-23 23:47 -24.49585 -70.36152 35066 ft 465 kts 187°
2026-04-23 23:48 -24.56059 -70.35939 35062 ft 465 kts 187°
2026-04-23 23:48 -24.62517 -70.35726 35091 ft 464 kts 186°
2026-04-23 23:49 -24.72172 -70.35391 35086 ft 465 kts 187°
2026-04-23 23:49 -24.78634 -70.35172 35079 ft 465 kts 187°
2026-04-23 23:50 -24.85104 -70.34956 35075 ft 465 kts 187°
2026-04-23 23:50 -24.91565 -70.34751 35068 ft 464 kts 187°
2026-04-23 23:51 -24.98032 -70.34532 35085 ft 465 kts 188°
2026-04-23 23:51 -25.04451 -70.34315 35065 ft 464 kts 188°
2026-04-23 23:52 -25.10912 -70.34098 35066 ft 465 kts 188°
2026-04-23 23:52 -25.17388 -70.33879 35063 ft 465 kts 188°
2026-04-23 23:53 -25.23852 -70.33653 35086 ft 465 kts 188°
2026-04-23 23:53 -25.30320 -70.33432 35086 ft 465 kts 188°
2026-04-23 23:54 -25.36789 -70.33219 35082 ft 465 kts 188°
2026-04-23 23:54 -25.43253 -70.33003 35073 ft 465 kts 188°
2026-04-23 23:55 -25.49668 -70.32788 35071 ft 465 kts 188°
2026-04-23 23:55 -25.56137 -70.32560 35090 ft 465 kts 188°
2026-04-23 23:56 -25.62611 -70.32326 35080 ft 465 kts 189°
2026-04-23 23:56 -25.69082 -70.32115 35069 ft 465 kts 189°
2026-04-23 23:57 -25.75557 -70.31903 35066 ft 465 kts 189°
2026-04-23 23:57 -25.82027 -70.31688 35106 ft 465 kts 189°
2026-04-23 23:58 -25.88457 -70.31462 35101 ft 465 kts 189°
2026-04-23 23:58 -25.94924 -70.31238 35094 ft 464 kts 189°
2026-04-23 23:59 -26.01382 -70.31023 35088 ft 464 kts 189°
2026-04-23 23:59 -26.07821 -70.30935 35082 ft 454 kts 196°
2026-04-24 00:00 -26.14098 -70.31512 35103 ft 453 kts 197°
2026-04-24 00:00 -26.20331 -70.32085 35095 ft 452 kts 197°
2026-04-24 00:01 -26.26606 -70.32654 35087 ft 452 kts 197°
2026-04-24 00:01 -26.32877 -70.33232 35082 ft 452 kts 197°
2026-04-24 00:02 -26.39141 -70.33806 35119 ft 452 kts 197°
2026-04-24 00:02 -26.45363 -70.34376 35108 ft 451 kts 197°
2026-04-24 00:03 -26.51611 -70.34960 35102 ft 451 kts 197°
2026-04-24 00:03 -26.57865 -70.35543 35100 ft 451 kts 197°
2026-04-24 00:04 -26.64119 -70.36113 35067 ft 450 kts 198°
2026-04-24 00:04 -26.70369 -70.36690 35105 ft 451 kts 198°
2026-04-24 00:05 -26.76579 -70.37263 35102 ft 450 kts 198°
2026-04-24 00:05 -26.82828 -70.37831 35090 ft 450 kts 198°
2026-04-24 00:06 -26.89059 -70.38416 35083 ft 449 kts 198°
2026-04-24 00:06 -26.95298 -70.39004 35074 ft 450 kts 198°
2026-04-24 00:07 -27.01537 -70.39583 35074 ft 450 kts 198°
2026-04-24 00:07 -27.07734 -70.40156 35070 ft 450 kts 198°
2026-04-24 00:08 -27.13967 -70.40742 35075 ft 450 kts 198°
2026-04-24 00:08 -27.20210 -70.41323 35067 ft 449 kts 198°
2026-04-24 00:09 -27.26441 -70.41904 35109 ft 450 kts 199°
2026-04-24 00:09 -27.32684 -70.42498 35103 ft 451 kts 199°
2026-04-24 00:10 -27.38942 -70.43083 35096 ft 451 kts 198°
2026-04-24 00:10 -27.45150 -70.43661 35092 ft 450 kts 199°
2026-04-24 00:11 -27.51394 -70.44249 35088 ft 450 kts 199°
2026-04-24 00:11 -27.57637 -70.44839 35110 ft 450 kts 199°
2026-04-24 00:12 -27.63891 -70.45429 35101 ft 451 kts 199°
2026-04-24 00:12 -27.70143 -70.46017 35093 ft 451 kts 199°
2026-04-24 00:13 -27.76350 -70.46605 35092 ft 451 kts 199°
2026-04-24 00:13 -27.82609 -70.47196 35139 ft 451 kts 199°
2026-04-24 00:14 -27.88849 -70.47778 35084 ft 449 kts 200°
2026-04-24 00:14 -27.95065 -70.48370 35090 ft 448 kts 200°
2026-04-24 00:15 -28.01278 -70.48968 35085 ft 448 kts 200°
2026-04-24 00:15 -28.07499 -70.49556 35082 ft 448 kts 199°
2026-04-24 00:16 -28.13713 -70.50139 35120 ft 448 kts 200°
2026-04-24 00:16 -28.19878 -70.50727 35115 ft 447 kts 200°
2026-04-24 00:17 -28.26087 -70.51323 35114 ft 447 kts 200°
2026-04-24 00:17 -28.32270 -70.51907 35107 ft 446 kts 200°
2026-04-24 00:18 -28.38452 -70.52497 35103 ft 446 kts 200°
2026-04-24 00:18 -28.44608 -70.53093 35104 ft 442 kts 201°
2026-04-24 00:19 -28.50690 -70.53678 35103 ft 442 kts 201°
2026-04-24 00:19 -28.56814 -70.54251 35090 ft 441 kts 200°
2026-04-24 00:20 -28.62931 -70.54827 35099 ft 441 kts 200°
2026-04-24 00:20 -28.69053 -70.55390 35133 ft 441 kts 201°
2026-04-24 00:21 -28.75162 -70.55959 35125 ft 440 kts 201°
2026-04-24 00:21 -28.81228 -70.56533 35115 ft 440 kts 201°
2026-04-24 00:22 -28.87336 -70.57112 35116 ft 441 kts 200°
2026-04-24 00:22 -28.93461 -70.57694 35126 ft 441 kts 201°
2026-04-24 00:23 -28.99569 -70.58287 35170 ft 440 kts 201°
2026-04-24 00:23 -29.05627 -70.58833 35561 ft 437 kts 200°
2026-04-24 00:24 -29.08694 -70.59082 35822 ft 439 kts 200°
2026-04-24 00:24 -29.11714 -70.59329 35911 ft 440 kts 200°
2026-04-24 00:24 -29.14754 -70.59575 36257 ft 438 kts 201°
2026-04-24 00:24 -29.17782 -70.59864 36492 ft 435 kts 202°
2026-04-24 00:25 -29.20794 -70.60207 36752 ft 433 kts 202°
2026-04-24 00:25 -29.23786 -70.60559 37049 ft 432 kts 202°
2026-04-24 00:25 -29.29818 -70.61238 37140 ft 441 kts 202°
2026-04-24 00:26 -29.35969 -70.61867 37302 ft 443 kts 201°
2026-04-24 00:26 -29.38981 -70.62171 37631 ft 440 kts 202°
2026-04-24 00:26 -29.42041 -70.62478 37673 ft 439 kts 201°
2026-04-24 00:27 -29.45074 -70.62773 38069 ft 435 kts 202°
2026-04-24 00:27 -29.48075 -70.63051 38409 ft 433 kts 202°
2026-04-24 00:27 -29.51118 -70.63345 38079 ft 442 kts 201°
2026-04-24 00:27 -29.54200 -70.63675 37729 ft 445 kts 201°
2026-04-24 00:28 -29.57278 -70.64037 37345 ft 446 kts 202°
2026-04-24 00:28 -29.60359 -70.64412 37093 ft 443 kts 202°
2026-04-24 00:28 -29.66472 -70.65167 37140 ft 446 kts 202°
2026-04-24 00:29 -29.72656 -70.65826 37146 ft 447 kts 200°
2026-04-24 00:29 -29.78867 -70.66377 37142 ft 448 kts 200°
2026-04-24 00:30 -29.85089 -70.66931 37136 ft 448 kts 200°
2026-04-24 00:30 -29.91249 -70.67507 37139 ft 446 kts 200°
2026-04-24 00:31 -29.97443 -70.68086 37137 ft 447 kts 200°
2026-04-24 00:31 -30.03644 -70.68678 37134 ft 447 kts 200°
2026-04-24 00:32 -30.09850 -70.69265 37131 ft 448 kts 200°
2026-04-24 00:32 -30.16041 -70.69846 37127 ft 447 kts 199°
2026-04-24 00:33 -30.22240 -70.70439 37135 ft 447 kts 200°
2026-04-24 00:33 -30.28398 -70.71030 37146 ft 447 kts 200°
2026-04-24 00:34 -30.34601 -70.71610 37195 ft 448 kts 199°
2026-04-24 00:34 -30.40820 -70.72189 37158 ft 448 kts 199°
2026-04-24 00:35 -30.47028 -70.72770 37148 ft 447 kts 199°
2026-04-24 00:35 -30.53241 -70.73367 37146 ft 447 kts 199°
2026-04-24 00:36 -30.59402 -70.73959 37148 ft 447 kts 199°
2026-04-24 00:36 -30.65615 -70.74563 37154 ft 448 kts 198°
2026-04-24 00:37 -30.71859 -70.75170 37139 ft 451 kts 198°
2026-04-24 00:37 -30.78079 -70.75771 37122 ft 447 kts 198°
2026-04-24 00:38 -30.84241 -70.76373 37122 ft 447 kts 198°
2026-04-24 00:38 -30.90449 -70.76971 37164 ft 447 kts 197°
2026-04-24 00:39 -30.96655 -70.77575 37150 ft 447 kts 197°
2026-04-24 00:39 -31.02808 -70.78178 37136 ft 446 kts 197°
2026-04-24 00:40 -31.09000 -70.78782 37150 ft 447 kts 197°
2026-04-24 00:40 -31.15202 -70.79395 37201 ft 446 kts 196°
2026-04-24 00:41 -31.21405 -70.80005 37182 ft 448 kts 196°
2026-04-24 00:41 -31.27609 -70.80608 37178 ft 447 kts 195°
2026-04-24 00:42 -31.33776 -70.81213 37177 ft 448 kts 195°
2026-04-24 00:42 -31.39994 -70.81830 37166 ft 449 kts 196°
2026-04-24 00:43 -31.46219 -70.82454 37179 ft 449 kts 194°
2026-04-24 00:43 -31.52469 -70.83071 37161 ft 451 kts 194°
2026-04-24 00:44 -31.58731 -70.83685 37166 ft 452 kts 195°
2026-04-24 00:44 -31.64992 -70.84296 37169 ft 452 kts 195°
2026-04-24 00:45 -31.68124 -70.84604 36784 ft 452 kts 195°
2026-04-24 00:45 -31.71248 -70.84908 36243 ft 446 kts 194°
2026-04-24 00:45 -31.74314 -70.85200 35505 ft 439 kts 192°
2026-04-24 00:45 -31.77336 -70.85215 34815 ft 439 kts 186°
2026-04-24 00:46 -31.80362 -70.85109 34135 ft 432 kts 186°
2026-04-24 00:46 -31.83345 -70.85004 33357 ft 425 kts 186°
2026-04-24 00:46 -31.86278 -70.84901 32594 ft 418 kts 185°
2026-04-24 00:46 -31.89160 -70.84804 31844 ft 412 kts 185°
2026-04-24 00:47 -31.92005 -70.84706 31119 ft 405 kts 184°
2026-04-24 00:47 -31.94805 -70.84607 30423 ft 399 kts 184°
2026-04-24 00:47 -31.97560 -70.84508 29640 ft 394 kts 184°
2026-04-24 00:47 -32.00284 -70.84409 28817 ft 389 kts 184°
2026-04-24 00:48 -32.02973 -70.84312 28040 ft 384 kts 184°
2026-04-24 00:48 -32.05590 -70.84220 27263 ft 379 kts 184°
2026-04-24 00:48 -32.08210 -70.84126 26512 ft 374 kts 183°
2026-04-24 00:48 -32.10799 -70.84034 25771 ft 369 kts 183°
2026-04-24 00:49 -32.13354 -70.83943 25048 ft 365 kts 182°
2026-04-24 00:49 -32.15876 -70.83851 24349 ft 361 kts 182°
2026-04-24 00:49 -32.18378 -70.83759 23653 ft 358 kts 182°
2026-04-24 00:49 -32.20853 -70.83671 22867 ft 355 kts 182°
2026-04-24 00:50 -32.23309 -70.83583 22120 ft 351 kts 182°
2026-04-24 00:50 -32.25738 -70.83498 21387 ft 348 kts 182°
2026-04-24 00:50 -32.28114 -70.83415 20704 ft 345 kts 182°
2026-04-24 00:50 -32.30502 -70.83329 20007 ft 342 kts 182°
2026-04-24 00:51 -32.32877 -70.83246 19402 ft 342 kts 181°
2026-04-24 00:51 -32.35248 -70.83165 19145 ft 341 kts 181°
2026-04-24 00:51 -32.37613 -70.83083 18918 ft 340 kts 181°
2026-04-24 00:51 -32.39980 -70.82998 18681 ft 339 kts 181°
2026-04-24 00:52 -32.42325 -70.82912 18427 ft 336 kts 181°
2026-04-24 00:52 -32.44655 -70.82826 18017 ft 335 kts 181°
2026-04-24 00:52 -32.46980 -70.82744 17624 ft 333 kts 181°
2026-04-24 00:52 -32.49290 -70.82662 17233 ft 331 kts 181°
2026-04-24 00:53 -32.51557 -70.82580 16855 ft 329 kts 181°
2026-04-24 00:53 -32.53831 -70.82497 16481 ft 327 kts 181°
2026-04-24 00:53 -32.56116 -70.82418 16098 ft 328 kts 180°
2026-04-24 00:53 -32.58398 -70.82334 15717 ft 329 kts 180°
2026-04-24 00:54 -32.60684 -70.82246 15337 ft 329 kts 180°
2026-04-24 00:54 -32.62975 -70.82164 14954 ft 330 kts 180°
2026-04-24 00:54 -32.64491 -70.82110 14705 ft 330 kts 180°
2026-04-24 00:54 -32.66784 -70.82029 14317 ft 329 kts 180°
2026-04-24 00:55 -32.69816 -70.81918 13841 ft 328 kts 180°
2026-04-24 00:55 -32.72064 -70.81833 13702 ft 318 kts 179°
2026-04-24 00:55 -32.74247 -70.81748 13571 ft 309 kts 179°
2026-04-24 00:55 -32.76368 -70.81668 13428 ft 301 kts 180°
2026-04-24 00:56 -32.78447 -70.81597 13175 ft 298 kts 180°
2026-04-24 00:56 -32.79816 -70.81550 12959 ft 298 kts 180°
2026-04-24 00:56 -32.81886 -70.81477 12659 ft 297 kts 180°
2026-04-24 00:56 -32.83945 -70.81403 12370 ft 295 kts 179°
2026-04-24 00:57 -32.86685 -70.81304 11960 ft 294 kts 179°
2026-04-24 00:57 -32.88039 -70.81256 11755 ft 293 kts 179°
2026-04-24 00:57 -32.92102 -70.81153 11134 ft 291 kts 186°
2026-04-24 00:58 -32.94104 -70.81437 10826 ft 289 kts 188°
2026-04-24 00:58 -32.96087 -70.81738 10398 ft 286 kts 188°
2026-04-24 00:58 -32.98072 -70.82039 9710 ft 290 kts 188°
2026-04-24 00:58 -33.00089 -70.82328 8919 ft 294 kts 184°
2026-04-24 00:59 -33.02085 -70.82369 8531 ft 282 kts 181°
2026-04-24 00:59 -33.03999 -70.82425 8274 ft 268 kts 182°
2026-04-24 00:59 -33.05818 -70.82490 8030 ft 256 kts 182°
2026-04-24 00:59 -33.07592 -70.82360 7422 ft 258 kts 168°
2026-04-24 01:00 -33.09278 -70.81980 7538 ft 235 kts 169°
2026-04-24 01:00 -33.10876 -70.81627 7621 ft 229 kts 171°
2026-04-24 01:00 -33.12442 -70.81438 7430 ft 225 kts 182°
2026-04-24 01:00 -33.13966 -70.81530 7300 ft 211 kts 181°
2026-04-24 01:01 -33.15380 -70.81523 7174 ft 196 kts 178°
2026-04-24 01:01 -33.16682 -70.81466 7037 ft 185 kts 177°
2026-04-24 01:01 -33.17978 -70.81427 6644 ft 187 kts 179°
2026-04-24 01:01 -33.19270 -70.81423 6206 ft 184 kts 179°
2026-04-24 01:02 -33.20541 -70.81426 5732 ft 183 kts 179°
2026-04-24 01:02 -33.21831 -70.81385 5118 ft 188 kts 176°
2026-04-24 01:02 -33.23128 -70.81269 4574 ft 186 kts 174°
2026-04-24 01:02 -33.24416 -70.81121 4049 ft 183 kts 173°
2026-04-24 01:03 -33.25631 -70.80990 3754 ft 170 kts 176°
2026-04-24 01:03 -33.26790 -70.80956 3409 ft 165 kts 179°
2026-04-24 01:03 -33.27910 -70.80939 3174 ft 154 kts 178°
2026-04-24 01:03 -33.28957 -70.80892 2971 ft 149 kts 176°
2026-04-24 01:04 -33.29970 -70.80804 2682 ft 146 kts 175°
2026-04-24 01:04 -33.30966 -70.80717 2523 ft 143 kts 176°
2026-04-24 01:04 -33.31960 -70.80640 2431 ft 143 kts 174°
2026-04-24 01:04 -33.32957 -70.80582 2345 ft 144 kts 178°
2026-04-24 01:05 -33.33955 -70.80561 2209 ft 143 kts 178°
2026-04-24 01:05 -33.34948 -70.80523 2061 ft 143 kts 175°
2026-04-24 01:05 -33.35932 -70.80436 1883 ft 141 kts 175°
2026-04-24 01:05 -33.36907 -70.80391 1691 ft 139 kts 176°
2026-04-24 01:06 -33.37864 -70.80342 1580 ft 133 kts 175°
2026-04-24 01:06 -33.38584 -70.80298 1574 ft 62 kts 178°
2026-04-24 01:06 -33.38800 -70.80287 1575 ft 22 kts 177°
2026-04-24 01:06 -33.38959 -70.80278 1574 ft 24 kts 177°
2026-04-24 01:07 -33.39128 -70.80270 1573 ft 24 kts 175°
2026-04-24 01:07 -33.39285 -70.80226 1572 ft 22 kts 156°
2026-04-24 01:07 -33.39392 -70.80151 1569 ft 17 kts 148°
2026-04-24 01:07 -33.39482 -70.80081 1566 ft 12 kts 136°
2026-04-24 01:08 -33.39560 -70.80044 1566 ft 13 kts 178°
2026-04-24 01:08 -33.39657 -70.80037 1566 ft 15 kts 176°
2026-04-24 01:08 -33.39765 -70.80030 1566 ft 16 kts 177°
2026-04-24 01:08 -33.39847 -70.79993 1566 ft 13 kts 96°
2026-04-24 01:09 -33.39843 -70.79875 1565 ft 15 kts 87°
2026-04-24 01:09 -33.39844 -70.79766 1565 ft 8 kts 114°
2026-04-24 01:09 -33.39864 -70.79757 1565 ft 2 kts 173°
2026-04-24 01:09 -33.39910 -70.79754 1564 ft 9 kts 178°
2026-04-24 01:10 -33.39936 -70.79753 1564 ft 1 kts 177°
2026-04-24 01:10 -33.39938 -70.79753 1564 ft 0 kts 177°